DW4230 Weather Reports


Display with metric or nautical units.
time (UTC)temp
F
wind
direction
speed
MPH
gust
MPH
rain 1hr
in
rain 24hr
in
rain mn
in
humidity
%
barometer
mb
20260903234510 72 279 0.0 3.0 0.00 0.88 0.88 93 1009.9
20260903233050 72 279 2.0 4.0 0.00 0.88 0.88 93 1009.7
20260903231529 72 275 0.0 5.0 0.00 0.88 0.88 92 1009.7
20260903230054 73 124 3.0 8.0 0.00 0.88 0.88 92 1009.8
20260903224531 73 253 3.0 9.0 0.00 0.88 0.88 91 1010.0
20260903223051 74 283 6.0 11.0 0.00 0.88 0.88 90 1010.0
20260903221613 74 124 3.0 10.0 0.00 0.88 0.88 90 1010.1
20260903220046 74 247 5.0 17.0 0.00 0.88 0.88 90 1010.0
20260903214526 74 256 5.0 12.0 0.00 0.88 0.88 90 1009.9
20260903213102 75 250 4.0 14.0 0.00 0.88 0.88 90 1009.9
20260903211524 74 124 6.0 14.0 0.00 0.88 0.88 90 1010.0
20260903210126 74 264 6.0 15.0 0.00 0.88 0.88 91 1010.0
20260903204519 75 254 4.0 15.0 0.00 0.88 0.88 89 1010.0
20260903203107 75 253 8.0 16.0 0.00 0.88 0.88 89 1010.0
20260903201512 75 216 8.0 14.0 0.00 0.88 0.88 89 1010.0
20260903200045 75 232 5.0 13.0 0.00 0.88 0.88 89 1010.3
20260903194511 76 252 6.0 11.0 0.00 0.88 0.88 88 1010.3
20260903193047 76 124 4.0 11.0 0.00 0.88 0.88 89 1010.7
20260903191514 76 124 7.0 12.0 0.00 0.88 0.88 89 1010.9
20260903190050 76 217 7.0 12.0 0.00 0.88 0.88 89 1010.9
20260903184517 75 248 3.0 11.0 0.00 0.88 0.88 90 1011.1
20260903183058 75 255 4.0 11.0 0.00 0.88 0.88 90 1011.5
20260903181524 74 124 4.0 11.0 0.00 0.88 0.88 91 1011.5
20260903180109 74 251 2.0 12.0 0.00 0.88 0.88 91 1011.4
20260903174536 74 252 5.0 13.0 0.00 0.88 0.88 92 1011.5
20260903173005 73 124 5.0 13.0 0.00 0.88 0.88 93 1011.5
20260903171541 73 124 6.0 13.0 0.00 0.88 0.88 93 1011.9
20260903170012 73 242 7.0 14.0 0.00 0.88 0.88 94 1011.9
20260903164602 73 124 2.0 9.0 0.00 0.88 0.88 95 1011.6
20260903163013 72 124 4.0 8.0 0.00 0.88 0.88 95 1011.6
20260903161546 72 124 4.0 8.0 0.00 0.88 0.88 95 1011.6
20260903160007 73 253 3.0 6.0 0.00 0.88 0.88 95 1011.7
20260903154606 73 124 4.0 9.0 0.00 0.88 0.88 96 1011.8
20260903153019 73 124 1.0 8.0 0.00 0.88 0.88 96 1011.8
20260903151556 72 242 2.0 8.0 0.00 0.88 0.88 96 1012.2
20260903150023 72 247 2.0 8.0 0.00 0.88 0.88 96 1012.5
20260903144607 72 243 4.0 11.0 0.00 0.88 0.88 96 1012.5
20260903143036 71 254 5.0 10.0 0.00 0.88 0.88 96 1012.6
20260903141614 71 124 2.0 12.0 0.00 0.88 0.88 96 1013.3
20260903140016 71 231 4.0 13.0 0.00 0.88 0.88 96 1013.2
20260903134557 71 124 6.0 14.0 0.02 0.88 0.88 96 1013.3
20260903133020 70 249 6.0 16.0 0.02 0.88 0.88 95 1013.3
20260903131548 70 256 8.0 17.0 0.02 0.88 0.88 96 1013.0
20260903130019 70 124 8.0 18.0 0.06 0.88 0.88 95 1012.9
20260903124546 70 124 7.0 13.0 0.05 0.86 0.86 95 1013.3
20260903123014 69 124 4.0 16.0 0.13 0.86 0.86 95 1013.8
20260903121556 69 233 5.0 12.0 0.13 0.86 0.86 95 1013.5
20260903120012 69 190 4.0 16.0 0.10 0.82 0.82 95 1013.7
20260903114549 68 187 3.0 8.0 0.09 0.81 0.81 95 1014.0
20260903113005 68 198 5.0 11.0 0.03 0.73 0.73 95 1014.1
20260903111546 68 124 3.0 9.0 0.21 0.73 0.73 95 1014.2
20260903110017 67 198 4.0 11.0 0.22 0.72 0.72 95 1014.2
20260903104559 67 196 2.0 13.0 0.32 0.72 0.72 94 1014.1
20260903103028 66 147 2.0 10.0 0.52 0.70 0.70 94 1013.9
20260903101611 66 177 2.0 8.0 0.47 0.52 0.52 94 1014.1
20260903100036 66 193 1.0 7.0 0.47 0.50 0.50 94 1013.9
20260903094509 66 167 2.0 8.0 0.36 0.38 0.38 93 1014.3
20260903093105 66 168 0.0 7.0 0.17 0.18 0.18 93 1014.4
20260903091518 66 205 0.0 5.0 0.04 0.05 0.05 92 1014.3
20260903090054 66 181 1.0 9.0 0.02 0.03 0.03 92 1014.3
20260903084509 66 191 2.0 10.0 0.01 0.01 0.01 92 1014.4
20260903083044 66 168 1.0 7.0 0.01 0.01 0.01 92 1014.5
20260903081521 66 171 1.0 6.0 0.01 0.01 0.01 92 1014.6
20260903080031 66 191 0.0 5.0 0.01 0.01 0.01 91 1014.9
20260903074503 66 142 2.0 9.0 0.00 0.00 0.00 90 1015.2
20260903073022 67 198 2.0 8.0 0.00 0.00 0.00 88 1015.3
20260903071609 67 192 2.0 8.0 0.00 0.00 0.00 88 1015.4
20260903070031 67 172 3.0 9.0 0.00 0.00 0.00 87 1015.5
20260903064606 67 192 2.0 11.0 0.00 0.00 0.00 86 1015.7
20260903063102 67 200 4.0 10.0 0.00 0.00 0.00 85 1015.9
20260903061555 67 187 2.0 6.0 0.00 0.00 0.00 85 1016.3
20260903060025 67 172 3.0 8.0 0.00 0.00 0.00 86 1016.2
20260903054617 66 160 0.0 8.0 0.00 0.00 0.00 85 1016.7
20260903053037 66 156 2.0 7.0 0.00 0.00 0.00 86 1016.9
20260903051505 66 148 2.0 7.0 0.00 0.00 0.00 86 1016.9
20260903050107 66 202 2.0 5.0 0.00 0.00 0.00 86 1017.3
20260903044512 66 155 2.0 7.0 0.00 0.00 0.00 85 1017.2
20260903033104 66 207 3.0 10.0 0.00 0.00 0.00 79 1017.3
20260903031525 66 188 2.0 10.0 0.00 0.00 0.00 77 1017.8
20260903030110 66 150 3.0 9.0 0.00 0.00 0.00 81 1017.8
20260903024536 66 193 2.0 7.0 0.00 0.00 0.00 82 1017.8
20260903023003 67 207 2.0 8.0 0.00 0.00 0.00 80 1017.6
20260903021540 67 157 3.0 11.0 0.00 0.00 0.00 80 1017.8
20260903020009 67 200 3.0 9.0 0.00 0.00 0.00 79 1018.0
20260903014555 67 201 3.0 8.0 0.00 0.00 0.00 77 1018.4
20260903013022 67 141 2.0 9.0 0.00 0.00 0.00 76 1018.3
20260903011609 67 178 3.0 10.0 0.00 0.00 0.00 75 1018.4
20260903010029 67 163 1.0 12.0 0.00 0.00 0.00 77 1018.4
20260903004554 67 197 4.0 11.0 0.00 0.00 0.00 77 1018.4
20260903003020 67 154 2.0 8.0 0.00 0.00 0.00 78 1018.2
20260903001548 67 133 3.0 9.0 0.00 0.00 0.00 76 1018.6
20260903000019 67 189 2.0 10.0 0.00 0.00 0.00 77 1018.7